| time (UTC) | temp F | wind direction | speed MPH | gust MPH | rain 1hr in | rain 24hr in | rain mn in | humidity % | barometer mb |
| 20260831144519 | 75 | 131 | 1.0 | 10.0 | 0.07 | 4.26 | 0.31 | 81 | 971.3 |
| 20260831143017 | 77 | 101 | 1.0 | 13.0 | 0.05 | 4.25 | 0.28 | 76 | 971.0 |
| 20260831141510 | 78 | 115 | 6.0 | 13.0 | 0.03 | 4.23 | 0.27 | 73 | 970.6 |
| 20260831140014 | 78 | 117 | 5.0 | 14.0 | 0.02 | 4.22 | 0.26 | 72 | 970.3 |
| 20260831134502 | 79 | 89 | 6.0 | 15.0 | 0.00 | 4.20 | 0.24 | 70 | 969.8 |
| 20260831133059 | 80 | 92 | 3.0 | 11.0 | 0.00 | 4.20 | 0.24 | 66 | 969.5 |
| 20260831131600 | 81 | 53 | 0.0 | 7.0 | 0.00 | 4.20 | 0.24 | 64 | 969.0 |
| 20260831130054 | 80 | 190 | 0.0 | 0.0 | 0.00 | 4.20 | 0.24 | 64 | 968.7 |
| 20260831124556 | 80 | 190 | 0.0 | 0.0 | 0.00 | 4.20 | 0.24 | 64 | 968.6 |
| 20260831123051 | 80 | 190 | 0.0 | 10.0 | 0.00 | 4.20 | 0.24 | 64 | 968.4 |
| 20260831121550 | 80 | 55 | 0.0 | 0.0 | 0.00 | 4.20 | 0.24 | 66 | 968.2 |
| 20260831120059 | 81 | 53 | 0.0 | 0.0 | 0.00 | 4.20 | 0.24 | 63 | 967.8 |
| 20260831114546 | 81 | 53 | 0.0 | 0.0 | 0.00 | 4.20 | 0.24 | 62 | 967.6 |
| 20260831113049 | 80 | 53 | 0.0 | 0.0 | 0.00 | 4.20 | 0.24 | 61 | 967.5 |
| 20260831111543 | 80 | 53 | 0.0 | 0.0 | 0.00 | 4.20 | 0.24 | 63 | 967.2 |
| 20260831110043 | 81 | 53 | 0.0 | 6.0 | 0.00 | 4.20 | 0.24 | 62 | 967.3 |
| 20260831104542 | 81 | 41 | 0.0 | 0.0 | 0.00 | 4.20 | 0.24 | 61 | 967.0 |
| 20260831103043 | 81 | 42 | 0.0 | 0.0 | 0.00 | 4.20 | 0.24 | 61 | 966.5 |
| 20260831101541 | 81 | 42 | 0.0 | 6.0 | 0.00 | 4.20 | 0.24 | 60 | 965.9 |
| 20260831100038 | 81 | 51 | 0.0 | 8.0 | 0.00 | 4.20 | 0.24 | 60 | 966.5 |
| 20260831094537 | 81 | 64 | 1.0 | 6.0 | 0.04 | 4.20 | 0.24 | 61 | 966.5 |
| 20260831093035 | 80 | 45 | 0.0 | 10.0 | 0.07 | 4.20 | 0.24 | 62 | 966.6 |
| 20260831091534 | 80 | 48 | 7.0 | 16.0 | 0.14 | 4.20 | 0.24 | 62 | 966.7 |
| 20260831084530 | 80 | 57 | 8.0 | 15.0 | 0.11 | 4.16 | 0.20 | 63 | 967.2 |
| 20260831083029 | 80 | 32 | 8.0 | 20.0 | 0.08 | 4.13 | 0.17 | 65 | 967.4 |
| 20260831081526 | 81 | 24 | 8.0 | 15.0 | 0.01 | 4.05 | 0.10 | 62 | 967.4 |
| 20260831080032 | 82 | 30 | 6.0 | 18.0 | 0.10 | 4.05 | 0.10 | 61 | 967.5 |
| 20260831074525 | 81 | 360 | 1.0 | 11.0 | 0.11 | 4.05 | 0.09 | 64 | 967.5 |
| 20260831073021 | 82 | 36 | 1.0 | 10.0 | 0.13 | 4.05 | 0.09 | 64 | 967.4 |
| 20260831071519 | 83 | 30 | 7.0 | 18.0 | 0.13 | 4.05 | 0.09 | 63 | 967.1 |
| 20260831070015 | 82 | 337 | 10.0 | 22.0 | 0.15 | 3.96 | 0.00 | 64 | 967.3 |
| 20260831064515 | 82 | 11 | 5.0 | 17.0 | 0.13 | 4.08 | 3.94 | 66 | 967.1 |
| 20260831063015 | 83 | 25 | 4.0 | 16.0 | 0.11 | 4.05 | 3.92 | 64 | 966.4 |
| 20260831061512 | 83 | 345 | 5.0 | 22.0 | 0.25 | 4.05 | 3.92 | 62 | 966.4 |
| 20260831060012 | 83 | 350 | 10.0 | 18.0 | 0.17 | 3.95 | 3.81 | 61 | 966.4 |
| 20260831054512 | 83 | 207 | 2.0 | 12.0 | 0.53 | 4.16 | 3.81 | 64 | 965.8 |
| 20260831053011 | 83 | 209 | 8.0 | 15.0 | 0.92 | 4.16 | 3.81 | 63 | 965.7 |
| 20260831051518 | 84 | 241 | 9.0 | 16.0 | 0.82 | 4.01 | 3.67 | 60 | 965.7 |
| 20260831050010 | 84 | 240 | 8.0 | 21.0 | 1.10 | 3.99 | 3.64 | 60 | 966.0 |
| 20260831044510 | 83 | 189 | 12.0 | 20.0 | 1.65 | 5.34 | 3.26 | 63 | 966.1 |
| 20260831043008 | 85 | 206 | 15.0 | 23.0 | 2.25 | 4.97 | 2.89 | 59 | 966.1 |
| 20260831041504 | 87 | 198 | 13.0 | 22.0 | 2.18 | 4.88 | 2.81 | 56 | 965.8 |
| 20260831040004 | 90 | 215 | 14.0 | 24.0 | 1.89 | 5.11 | 2.52 | 50 | 965.7 |
| 20260831034505 | 93 | 186 | 6.0 | 35.0 | 0.98 | 4.20 | 1.61 | 44 | 965.4 |
| 20260831033003 | 100 | 343 | 0.0 | 0.0 | 0.00 | 3.22 | 0.63 | 36 | 964.3 |
| 20260831031502 | 100 | 343 | 0.0 | 0.0 | 0.00 | 3.22 | 0.63 | 35 | 964.2 |
| 20260831030002 | 100 | 343 | 0.0 | 0.0 | 0.00 | 3.22 | 0.63 | 35 | 964.0 |
| 20260831024503 | 100 | 342 | 0.0 | 0.0 | 0.00 | 3.22 | 0.63 | 35 | 963.8 |
| 20260831023000 | 100 | 342 | 0.0 | 0.0 | 0.00 | 3.22 | 0.63 | 35 | 963.6 |
| 20260831021600 | 101 | 343 | 0.0 | 0.0 | 0.00 | 3.22 | 0.63 | 34 | 963.3 |
| 20260831020112 | 101 | 343 | 0.0 | 0.0 | 0.00 | 3.22 | 0.63 | 34 | 963.1 |
| 20260831014601 | 102 | 343 | 0.0 | 0.0 | 0.00 | 3.30 | 0.63 | 34 | 962.9 |
| 20260831013104 | 102 | 343 | 0.0 | 0.0 | 0.00 | 3.30 | 0.63 | 33 | 962.7 |
| 20260831011558 | 102 | 342 | 0.0 | 0.0 | 0.00 | 3.30 | 0.63 | 33 | 962.6 |
| 20260831010057 | 102 | 201 | 0.0 | 7.0 | 0.00 | 3.30 | 0.63 | 33 | 962.8 |
| 20260831004559 | 103 | 289 | 1.0 | 8.0 | 0.00 | 3.54 | 0.63 | 32 | 963.0 |
| 20260831003056 | 104 | 277 | 1.0 | 7.0 | 0.01 | 3.54 | 0.63 | 32 | 963.0 |
| 20260831001555 | 103 | 35 | 0.0 | 6.0 | 0.01 | 3.54 | 0.63 | 32 | 963.0 |
| 20260831000053 | 103 | 351 | 0.0 | 4.0 | 0.01 | 3.54 | 0.63 | 32 | 963.1 |
| 20260830234553 | 104 | 296 | 0.0 | 7.0 | 0.01 | 3.60 | 0.63 | 32 | 963.2 |
| 20260830233049 | 104 | 169 | 0.0 | 0.0 | 0.00 | 3.59 | 0.62 | 32 | 963.3 |
| 20260830231547 | 103 | 233 | 0.0 | 5.0 | 0.00 | 3.59 | 0.62 | 32 | 963.5 |
| 20260830230044 | 103 | 114 | 0.0 | 4.0 | 0.00 | 3.59 | 0.62 | 32 | 963.7 |
| 20260830224543 | 103 | 284 | 0.0 | 0.0 | 0.02 | 3.67 | 0.62 | 32 | 964.0 |
| 20260830223040 | 103 | 269 | 0.0 | 7.0 | 0.03 | 3.67 | 0.62 | 32 | 964.3 |
| 20260830221540 | 102 | 271 | 3.0 | 9.0 | 0.03 | 3.67 | 0.62 | 32 | 964.6 |
| 20260830220035 | 102 | 161 | 0.0 | 9.0 | 0.04 | 3.67 | 0.62 | 33 | 964.8 |
| 20260830214534 | 103 | 200 | 4.0 | 10.0 | 0.06 | 3.91 | 0.60 | 33 | 965.2 |
| 20260830213035 | 101 | 291 | 0.0 | 8.0 | 0.05 | 3.90 | 0.59 | 33 | 965.5 |
| 20260830211527 | 101 | 275 | 0.0 | 10.0 | 0.06 | 3.90 | 0.59 | 34 | 965.8 |
| 20260830210027 | 101 | 169 | 0.0 | 9.0 | 0.07 | 3.88 | 0.56 | 34 | 966.0 |
| 20260830204526 | 101 | 172 | 1.0 | 6.0 | 0.04 | 3.88 | 0.54 | 34 | 966.3 |
| 20260830203022 | 101 | 103 | 0.0 | 0.0 | 0.04 | 3.88 | 0.54 | 34 | 966.6 |
| 20260830201522 | 100 | 114 | 0.0 | 10.0 | 0.03 | 3.87 | 0.53 | 35 | 966.9 |
| 20260830200020 | 100 | 84 | 0.0 | 0.0 | 0.00 | 3.84 | 0.50 | 36 | 967.1 |
| 20260830194518 | 99 | 76 | 0.0 | 6.0 | 0.00 | 3.84 | 0.50 | 36 | 967.2 |
| 20260830193017 | 98 | 221 | 2.0 | 8.0 | 0.06 | 3.84 | 0.50 | 38 | 967.5 |
| 20260830191518 | 98 | 203 | 3.0 | 14.0 | 0.09 | 3.84 | 0.50 | 38 | 967.8 |
| 20260830190021 | 98 | 123 | 1.0 | 8.0 | 0.22 | 3.84 | 0.50 | 38 | 968.0 |
| 20260830184515 | 98 | 153 | 0.0 | 15.0 | 0.22 | 3.84 | 0.50 | 39 | 968.3 |
| 20260830183012 | 97 | 70 | 0.0 | 8.0 | 0.16 | 3.78 | 0.44 | 40 | 968.5 |
| 20260830181511 | 96 | 208 | 0.0 | 10.0 | 0.13 | 3.75 | 0.41 | 41 | 968.7 |
| 20260830180010 | 96 | 145 | 3.0 | 11.0 | 0.03 | 3.62 | 0.28 | 40 | 968.9 |
| 20260830174511 | 96 | 126 | 0.0 | 6.0 | 0.22 | 3.62 | 0.28 | 41 | 969.1 |
| 20260830173008 | 95 | 122 | 1.0 | 10.0 | 0.28 | 3.62 | 0.28 | 42 | 969.1 |
| 20260830171504 | 95 | 86 | 0.0 | 9.0 | 0.28 | 3.62 | 0.28 | 42 | 969.2 |
| 20260830170005 | 94 | 145 | 2.0 | 13.0 | 0.25 | 3.59 | 0.25 | 43 | 969.1 |
| 20260830164501 | 93 | 194 | 2.0 | 15.0 | 0.06 | 3.40 | 0.06 | 43 | 969.2 |
| 20260830163100 | 93 | 138 | 0.0 | 8.0 | 0.00 | 3.34 | 0.00 | 45 | 969.0 |
| 20260830161606 | 92 | 73 | 0.0 | 7.0 | 0.00 | 3.34 | 0.00 | 44 | 969.3 |
| 20260830160104 | 91 | 142 | 0.0 | 8.0 | 0.00 | 3.34 | 0.00 | 45 | 969.2 |
| 20260830154553 | 90 | 104 | 0.0 | 10.0 | 0.00 | 3.35 | 0.00 | 46 | 969.1 |
| 20260830153052 | 90 | 116 | 2.0 | 10.0 | 0.00 | 3.35 | 0.00 | 47 | 969.2 |
| 20260830151603 | 89 | 90 | 3.0 | 10.0 | 0.00 | 3.35 | 0.00 | 47 | 969.2 |
| 20260830150051 | 89 | 107 | 0.0 | 10.0 | 0.00 | 3.35 | 0.00 | 48 | 969.2 |